User: anonymous   Login
Location: Maiden
(35.5760°N, 81.2120°W)
Time: 10:21:13
(UTC-05:00)
Language:

Cosmos 2151 - Orbit

View from above orbital plane
View from above orbital plane
View from above satellite
View from above satellite

Ground track
Ground track

The orbit data is extracted from the following two-line orbital elements,

1 21422U 91042A   16343.83931353  .00000323  00000-0  29465-4 0  9997
2 21422  82.5020  67.5795 0013695 204.4864 155.5707 14.91744585380123
Epoch (UTC): 08 December 2016 20:08:36
Eccentricity: 0.0013695
inclination: 82.5020°
perigee height: 583 km
apogee height: 602 km
right ascension of ascending node: 67.5795°
argument of perigee: 204.4864°
revolutions per day: 14.91744585
mean anomaly at epoch: 155.5707°
orbit number at epoch: 38012

The dashed part of the orbit path shows where the satellite is in the earth's shadow,  

DLR